,,Stat6,,Stat2,,Stat8,,Stat9,,Stat10,,Wind1,,Wind1,
time,status,PA1M_AVG,status,PR1M_SUM,status,RH1M_AVG,status,SR1M_AVG,status,TA1M_AVG,status,W1dAve1m,status,W1sAve1m,
2005-10-31, 00:00:01,VALID,918.581,VALID,0,VALID,100,VALID,-0.0849042,VALID,19.7648,VALID,64,VALID,1.01486,
2005-10-31, 00:01:01,VALID,918.583,VALID,0,VALID,100,VALID,-0.0509425,VALID,19.781,VALID,68,VALID,0.904588,
2005-10-31, 00:02:01,VALID,918.588,VALID,0,VALID,100,VALID,-0.0339617,VALID,19.7845,VALID,70,VALID,0.843369,
2005-10-31, 00:03:01,VALID,918.584,VALID,0.2,VALID,100,VALID,-0.0339617,VALID,19.7743,VALID,73,VALID,0.840234,
2005-10-31, 00:04:01,VALID,918.578,VALID,0,VALID,100,VALID,-0.0339617,VALID,19.7775,VALID,67,VALID,0.46766,
2005-10-31, 00:05:01,VALID,918.58,VALID,0,VALID,100,VALID,-0.0169808,VALID,19.7845,VALID,80,VALID,0.494606,
2005-10-31, 00:06:01,VALID,918.567,VALID,0.2,VALID,100,VALID,-0.0169808,VALID,19.7748,VALID,80,VALID,0.78125,
2005-10-31, 00:07:01,VALID,918.564,VALID,0,VALID,100,VALID,-0.0339617,VALID,19.7556,VALID,74,VALID,0.799237,
2005-10-31, 00:08:01,VALID,918.574,VALID,0.2,VALID,100,VALID,-0.0169808,VALID,19.7715,VALID,71,VALID,0.60973,
2005-10-31, 00:09:01,VALID,918.585,VALID,0.2,VALID,100,VALID,0,VALID,19.7648,VALID,115,VALID,0.479992,
2005-10-31, 00:10:01,VALID,918.605,VALID,0.2,VALID,100,VALID,-0.0169808,VALID,19.7683,VALID,137,VALID,0.557478,
2005-10-31, 00:11:01,VALID,918.605,VALID,0.4,VALID,100,VALID,-0.0169808,VALID,19.7646,VALID,156,VALID,0.830469,
2005-10-31, 00:12:01,VALID,918.581,VALID,0.6,VALID,100,VALID,-0.0169808,VALID,19.7452,VALID,149,VALID,1.30822,
2005-10-31, 00:13:01,VALID,918.552,VALID,0.4,VALID,100,VALID,0,VALID,19.7161,VALID,138,VALID,1.04936,
2005-10-31, 00:14:01,VALID,918.533,VALID,0.6,VALID,100,VALID,-0.0169808,VALID,19.7005,VALID,149,VALID,0.744336,
2005-10-31, 00:15:01,VALID,918.544,VALID,0.4,VALID,100,VALID,0,VALID,19.6935,VALID,150,VALID,0.734184,
2005-10-31, 00:16:01,VALID,918.57,VALID,0.4,VALID,100,VALID,0,VALID,19.7266,VALID,172,VALID,1.17115,
2005-10-31, 00:17:01,VALID,918.55,VALID,0.6,VALID,100,VALID,-0.0169808,VALID,19.6843,VALID,175,VALID,1.41425,
2005-10-31, 00:18:01,VALID,918.542,VALID,0.6,VALID,100,VALID,-0.0169808,VALID,19.6614,VALID,144,VALID,0.924851,
2005-10-31, 00:19:01,VALID,918.553,VALID,0.4,VALID,100,VALID,0,VALID,19.652,VALID,157,VALID,1.43125,
2005-10-31, 00:20:01,VALID,918.547,VALID,0.4,VALID,100,VALID,0,VALID,19.5963,VALID,155,VALID,0.749455,
2005-10-31, 00:21:01,VALID,918.538,VALID,0.2,VALID,100,VALID,0,VALID,19.5511,VALID,154,VALID,0.601563,
2005-10-31, 00:22:01,VALID,918.538,VALID,0.2,VALID,100,VALID,0,VALID,19.5193,VALID,142,VALID,0.990057,
2005-10-31, 00:23:01,VALID,918.543,VALID,0.2,VALID,100,VALID,-0.0339617,VALID,19.5064,VALID,133,VALID,0.88058,
2005-10-31, 00:24:01,VALID,918.543,VALID,0.2,VALID,100,VALID,0.0169808,VALID,19.4803,VALID,124,VALID,0.387091,
2005-10-31, 00:25:00,VALID,918.537,VALID,0.4,VALID,100,VALID,0,VALID,19.4837,VALID,136,VALID,0.65625,
2005-10-31, 00:26:00,VALID,918.533,VALID,0.2,VALID,100,VALID,-0.0169808,VALID,19.4741,VALID,105,VALID,0.748365,
2005-10-31, 00:27:00,VALID,918.569,VALID,0.2,VALID,100,VALID,-0.0169808,VALID,19.4649,VALID,149,VALID,0.802819,
2005-10-31, 00:28:00,VALID,918.572,VALID,0.2,VALID,100,VALID,0,VALID,19.4415,VALID,130,VALID,0.80923,
2005-10-31, 00:29:00,VALID,918.584,VALID,0.4,VALID,100,VALID,0,VALID,19.442,VALID,125,VALID,0.495739,
2005-10-31, 00:30:00,VALID,918.596,VALID,0.2,VALID,100,VALID,0,VALID,19.435,VALID,112,VALID,0.734747,
2005-10-31, 00:31:00,VALID,918.594,VALID,0.2,VALID,100,VALID,0,VALID,19.4388,VALID,124,VALID,0.739879,
2005-10-31, 00:32:00,VALID,918.586,VALID,0.2,VALID,100,VALID,0,VALID,19.4122,VALID,100,VALID,0.80593,
2005-10-31, 00:33:00,VALID,918.575,VALID,0.4,VALID,100,VALID,0,VALID,19.4261,VALID,84,VALID,0.856889,
2005-10-31, 00:34:00,VALID,918.544,VALID,0.2,VALID,100,VALID,0,VALID,19.4258,VALID,53,VALID,1.29633,
2005-10-31, 00:35:00,VALID,918.54,VALID,0.2,VALID,100,VALID,-0.0509425,VALID,19.4293,VALID,55,VALID,1.31436,
2005-10-31, 00:36:00,VALID,918.553,VALID,0.2,VALID,100,VALID,-0.0169808,VALID,19.4161,VALID,91,VALID,0.681868,
2005-10-31, 00:37:00,VALID,918.55,VALID,0,VALID,100,VALID,0,VALID,19.4298,VALID,130,VALID,0.693714,
2005-10-31, 00:38:00,VALID,918.529,VALID,0.2,VALID,100,VALID,-0.0339617,VALID,19.4224,VALID,89,VALID,0.414825,
2005-10-31, 00:39:00,VALID,918.522,VALID,0.2,VALID,100,VALID,0.0169808,VALID,19.4552,VALID,55,VALID,0.959985,
2005-10-31, 00:40:00,VALID,918.513,VALID,0,VALID,100,VALID,0,VALID,19.4678,VALID,65,VALID,0.82298,
2005-10-31, 00:41:00,VALID,918.5,VALID,0.2,VALID,100,VALID,-0.0169808,VALID,19.4681,VALID,49,VALID,0.993037,
2005-10-31, 00:42:00,VALID,918.483,VALID,0,VALID,100,VALID,-0.0339617,VALID,19.4355,VALID,28,VALID,1.26726,
2005-10-31, 00:43:00,VALID,918.474,VALID,0.2,VALID,100,VALID,-0.0339617,VALID,19.3905,VALID,29,VALID,1.21484,
2005-10-31, 00:44:00,VALID,918.466,VALID,0,VALID,100,VALID,-0.0339617,VALID,19.3935,VALID,349,VALID,0.834162,
2005-10-31, 00:45:00,VALID,918.464,VALID,0.2,VALID,100,VALID,-0.0339617,VALID,19.3878,VALID,53,VALID,0.408558,
2005-10-31, 00:46:00,VALID,918.458,VALID,0.2,VALID,100,VALID,0,VALID,19.3744,VALID,54,VALID,0.708008,
2005-10-31, 00:47:00,VALID,918.45,VALID,0,VALID,100,VALID,0,VALID,19.3779,VALID,18,VALID,0.284549,
2005-10-31, 00:48:00,VALID,918.456,VALID,0.2,VALID,100,VALID,-0.0169808,VALID,19.3555,VALID,54,VALID,0.501389,
2005-10-31, 00:49:00,VALID,918.485,VALID,0.2,VALID,100,VALID,-0.0339617,VALID,19.3299,VALID,62,VALID,0.241642,
2005-10-31, 00:50:00,VALID,918.48,VALID,0.2,VALID,100,VALID,-0.0169808,VALID,19.3003,VALID,62,VALID,0.0626736,
2005-10-31, 00:51:00,VALID,918.464,VALID,0,VALID,100,VALID,-0.0339617,VALID,19.3003,VALID,46,VALID,0.65625,
2005-10-31, 00:52:00,VALID,918.451,VALID,0.2,VALID,100,VALID,-0.0169808,VALID,19.3001,VALID,27,VALID,0.986852,
2005-10-31, 00:53:00,VALID,918.424,VALID,0,VALID,100,VALID,-0.0169808,VALID,19.3033,VALID,16,VALID,1.12583,
2005-10-31, 00:54:00,VALID,918.407,VALID,0.2,VALID,100,VALID,-0.0169808,VALID,19.2936,VALID,21,VALID,1.04706,
2005-10-31, 00:55:00,VALID,918.414,VALID,0.2,VALID,100,VALID,0,VALID,19.2807,VALID,36,VALID,0.94455,
2005-10-31, 00:56:00,VALID,918.416,VALID,0,VALID,100,VALID,-0.0169808,VALID,19.265,VALID,27,VALID,1.09641,
2005-10-31, 00:57:00,VALID,918.384,VALID,0.2,VALID,100,VALID,-0.0169808,VALID,19.2415,VALID,12,VALID,1.48295,
2005-10-31, 00:58:00,VALID,918.362,VALID,0.2,VALID,100,VALID,0,VALID,19.2484,VALID,11,VALID,1.5342,
2005-10-31, 00:59:00,VALID,918.338,VALID,0,VALID,100,VALID,-0.0169808,VALID,19.2424,VALID,19,VALID,1.83036,
2005-10-31, 01:00:00,VALID,918.332,VALID,0.2,VALID,100,VALID,-0.0169808,VALID,19.2422,VALID,23,VALID,2.08098,
2005-10-31, 01:01:00,VALID,918.313,VALID,0.2,VALID,100,VALID,-0.0169808,VALID,19.2327,VALID,17,VALID,1.5149,
2005-10-31, 01:02:00,VALID,918.3,VALID,0.2,VALID,100,VALID,0,VALID,19.233,VALID,14,VALID,1.80788,
2005-10-31, 01:03:00,VALID,918.29,VALID,0,VALID,100,VALID,-0.0169808,VALID,19.2551,VALID,12,VALID,1.60714,
2005-10-31, 01:04:00,VALID,918.286,VALID,0.2,VALID,100,VALID,0,VALID,19.2705,VALID,17,VALID,1.14535,
2005-10-31, 01:05:00,VALID,918.27,VALID,0.2,VALID,100,VALID,-0.0169808,VALID,19.2705,VALID,354,VALID,1.0484,
2005-10-31, 01:06:00,VALID,918.263,VALID,0,VALID,100,VALID,0,VALID,19.2809,VALID,12,VALID,0.720703,
2005-10-31, 01:07:00,VALID,918.249,VALID,0.2,VALID,100,VALID,0,VALID,19.2939,VALID,14,VALID,0.832889,
2005-10-31, 01:08:00,VALID,918.254,VALID,0,VALID,100,VALID,0,VALID,19.2934,VALID,18,VALID,0.467842,
2005-10-31, 01:09:00,VALID,918.235,VALID,0.2,VALID,100,VALID,-0.0169808,VALID,19.3001,VALID,19,VALID,0.293527,
2005-10-31, 01:10:00,VALID,918.186,VALID,0,VALID,100,VALID,0,VALID,19.3165,VALID,23,VALID,0.97141,
2005-10-31, 01:11:00,VALID,918.173,VALID,0,VALID,100,VALID,0,VALID,19.3232,VALID,2,VALID,0.821057,
2005-10-31, 01:12:00,VALID,918.177,VALID,0.2,VALID,100,VALID,-0.0339617,VALID,19.2874,VALID,347,VALID,0.587891,
2005-10-31, 01:13:00,VALID,918.183,VALID,0,VALID,100,VALID,-0.0509425,VALID,19.2685,VALID,344,VALID,0.170833,
2005-10-31, 01:14:00,VALID,918.168,VALID,0,VALID,100,VALID,-0.0339617,VALID,19.2581,VALID,33,VALID,0.644903,
2005-10-31, 01:15:00,VALID,918.169,VALID,0.2,VALID,100,VALID,-0.0339617,VALID,19.275,VALID,21,VALID,0.439986,
2005-10-31, 01:16:00,VALID,918.177,VALID,0,VALID,100,VALID,-0.0169808,VALID,19.2683,VALID,27,VALID,0,
2005-10-31, 01:17:00,VALID,918.163,VALID,0,VALID,100,VALID,-0.0509425,VALID,19.2648,VALID,27,VALID,0.0315972,
2005-10-31, 01:18:00,VALID,918.157,VALID,0,VALID,100,VALID,-0.0169808,VALID,19.2648,VALID,27,VALID,0.114524,
2005-10-31, 01:19:00,VALID,918.155,VALID,0.2,VALID,100,VALID,-0.0169808,VALID,19.2583,VALID,148,VALID,0.300495,
2005-10-31, 01:20:00,VALID,918.133,VALID,0,VALID,100,VALID,0,VALID,19.2357,VALID,165,VALID,0.163491,
2005-10-31, 01:21:00,VALID,918.079,VALID,0,VALID,100,VALID,0.0169808,VALID,19.2519,VALID,165,VALID,0.150521,
2005-10-31, 01:22:00,VALID,918.047,VALID,0.2,VALID,100,VALID,0,VALID,19.2325,VALID,165,VALID,0.195499,
2005-10-31, 01:23:00,VALID,918.003,VALID,0,VALID,100,VALID,-0.0169808,VALID,19.2613,VALID,38,VALID,0.772507,
2005-10-31, 01:24:00,VALID,917.958,VALID,0,VALID,100,VALID,-0.0169808,VALID,19.2385,VALID,15,VALID,1.63181,
2005-10-31, 01:25:00,VALID,917.993,VALID,0,VALID,100,VALID,0,VALID,19.239,VALID,61,VALID,1.17435,
2005-10-31, 01:26:00,VALID,917.983,VALID,0,VALID,100,VALID,-0.0339617,VALID,19.1999,VALID,189,VALID,0.529344,
2005-10-31, 01:27:00,VALID,917.947,VALID,0.2,VALID,100,VALID,-0.0339617,VALID,19.1778,VALID,199,VALID,0.275618,
2005-10-31, 01:28:00,VALID,917.931,VALID,0,VALID,100,VALID,0,VALID,19.1582,VALID,199,VALID,0,
2005-10-31, 01:29:00,VALID,917.9,VALID,0,VALID,100,VALID,-0.0169808,VALID,19.1323,VALID,238,VALID,0.392401,
2005-10-31, 01:30:00,VALID,917.912,VALID,0,VALID,100,VALID,-0.0169808,VALID,19.0682,VALID,257,VALID,0.647693,
2005-10-31, 01:31:00,VALID,917.912,VALID,0,VALID,100,VALID,0.0169808,VALID,19.0451,VALID,209,VALID,0.859561,
2005-10-31, 01:32:00,VALID,917.89,VALID,0,VALID,100,VALID,0,VALID,19.0225,VALID,174,VALID,0.85423,
2005-10-31, 01:33:00,VALID,917.893,VALID,0,VALID,100,VALID,0,VALID,19.0163,VALID,220,VALID,0.493075,
2005-10-31, 01:34:00,VALID,917.881,VALID,0.2,VALID,100,VALID,0,VALID,18.9934,VALID,247,VALID,1.09604,
2005-10-31, 01:35:00,VALID,917.87,VALID,0,VALID,100,VALID,-0.0169808,VALID,19.0195,VALID,225,VALID,1.79211,
2005-10-31, 01:36:00,VALID,917.885,VALID,0,VALID,100,VALID,-0.0169808,VALID,19.0354,VALID,239,VALID,1.59322,
2005-10-31, 01:37:00,VALID,917.908,VALID,0,VALID,100,VALID,-0.0169808,VALID,19.0583,VALID,222,VALID,0.837536,
2005-10-31, 01:38:00,VALID,917.903,VALID,0,VALID,100,VALID,-0.0169808,VALID,19.0451,VALID,205,VALID,1.00586,
2005-10-31, 01:39:00,VALID,917.896,VALID,0,VALID,100,VALID,0,VALID,19.0456,VALID,188,VALID,0.599276,
2005-10-31, 01:40:00,VALID,917.884,VALID,0,VALID,100,VALID,0,VALID,18.9934,VALID,188,VALID,0.351004,
2005-10-31, 01:41:00,VALID,917.882,VALID,0,VALID,100,VALID,0,VALID,18.981,VALID,188,VALID,0.114025,
2005-10-31, 01:42:00,VALID,917.869,VALID,0,VALID,100,VALID,-0.0339617,VALID,18.9549,VALID,188,VALID,0,
2005-10-31, 01:43:00,VALID,917.873,VALID,0,VALID,100,VALID,0,VALID,18.9489,VALID,157,VALID,0.246804,
2005-10-31, 01:44:00,VALID,917.873,VALID,0,VALID,100,VALID,-0.0169808,VALID,18.9519,VALID,1,VALID,0.340625,
2005-10-31, 01:45:00,VALID,917.863,VALID,0,VALID,100,VALID,-0.0339617,VALID,18.9581,VALID,345,VALID,0.303267,
2005-10-31, 01:46:00,VALID,917.859,VALID,0,VALID,100,VALID,-0.0169808,VALID,18.9388,VALID,4,VALID,0.579492,
2005-10-31, 01:47:00,VALID,917.862,VALID,0,VALID,100,VALID,-0.0509425,VALID,18.9681,VALID,12,VALID,0.890807,
2005-10-31, 01:48:00,VALID,917.848,VALID,0,VALID,100,VALID,-0.0169808,VALID,18.9713,VALID,24,VALID,1.06288,
2005-10-31, 01:49:00,VALID,917.846,VALID,0.2,VALID,100,VALID,-0.0339617,VALID,18.9745,VALID,32,VALID,0.988961,
2005-10-31, 01:50:00,VALID,917.844,VALID,0,VALID,100,VALID,-0.0169808,VALID,18.9745,VALID,26,VALID,0.921494,
2005-10-31, 01:51:00,VALID,917.852,VALID,0,VALID,100,VALID,-0.0509425,VALID,18.9944,VALID,23,VALID,0.491016,
2005-10-31, 01:52:00,VALID,917.846,VALID,0,VALID,100,VALID,-0.0679233,VALID,18.9745,VALID,23,VALID,0.379207,
2005-10-31, 01:53:00,VALID,917.839,VALID,0,VALID,100,VALID,-0.0509425,VALID,18.9778,VALID,28,VALID,0.469512,
2005-10-31, 01:54:00,VALID,917.827,VALID,0,VALID,100,VALID,-0.0169808,VALID,18.9745,VALID,33,VALID,0.351563,
2005-10-31, 01:55:00,VALID,917.802,VALID,0,VALID,100,VALID,0.0849042,VALID,18.9796,VALID,33,VALID,0.143342,
2005-10-31, 01:56:00,VALID,917.795,VALID,0,VALID,100,VALID,0.0509425,VALID,18.9828,VALID,9,VALID,0.211319,
2005-10-31, 01:57:00,VALID,917.797,VALID,0,VALID,100,VALID,0.0679233,VALID,18.9897,VALID,121,VALID,0.65918,
2005-10-31, 01:58:00,VALID,917.783,VALID,0,VALID,100,VALID,0.0509425,VALID,18.9733,VALID,125,VALID,0.673828,
2005-10-31, 01:59:00,VALID,917.769,VALID,0,VALID,100,VALID,0.0849042,VALID,18.9572,VALID,90,VALID,0.484375,
2005-10-31, 02:00:00,VALID,917.746,VALID,0.2,VALID,100,VALID,0.0509425,VALID,18.9604,VALID,83,VALID,0.634252,
2005-10-31, 02:01:00,VALID,917.717,VALID,0,VALID,100,VALID,0.101885,VALID,18.9569,VALID,75,VALID,0.463299,
2005-10-31, 02:02:00,VALID,917.7,VALID,0,VALID,100,VALID,0.0849042,VALID,18.9671,VALID,75,VALID,0.144709,
2005-10-31, 02:03:00,VALID,917.674,VALID,0,VALID,100,VALID,-0.0169808,VALID,18.9577,VALID,75,VALID,0.161754,
2005-10-31, 02:04:00,VALID,917.666,VALID,0.2,VALID,100,VALID,-0.0509425,VALID,18.9812,VALID,75,VALID,0.431141,
2005-10-31, 02:05:00,VALID,917.632,VALID,0,VALID,100,VALID,-0.0169808,VALID,18.9745,VALID,75,VALID,0.318132,
2005-10-31, 02:06:00,VALID,917.617,VALID,0,VALID,100,VALID,-0.0339617,VALID,18.9681,VALID,75,VALID,0.332812,
2005-10-31, 02:07:00,VALID,917.595,VALID,0,VALID,100,VALID,-0.0509425,VALID,18.9683,VALID,65,VALID,0.553013,
2005-10-31, 02:08:00,VALID,917.598,VALID,0.2,VALID,100,VALID,0,VALID,18.9715,VALID,34,VALID,0.780887,
2005-10-31, 02:09:00,VALID,917.605,VALID,0,VALID,100,VALID,-0.0339617,VALID,18.9745,VALID,20,VALID,0.482515,
2005-10-31, 02:10:00,VALID,917.592,VALID,0,VALID,100,VALID,0,VALID,18.9648,VALID,19,VALID,0.168069,
2005-10-31, 02:11:00,VALID,917.57,VALID,0,VALID,100,VALID,-0.0339617,VALID,18.9556,VALID,19,VALID,0.235899,
2005-10-31, 02:12:00,VALID,917.562,VALID,0.2,VALID,100,VALID,-0.0849042,VALID,18.9261,VALID,19,VALID,0.0965909,
2005-10-31, 02:13:00,VALID,917.545,VALID,0,VALID,100,VALID,-0.0509425,VALID,18.9522,VALID,19,VALID,0,
2005-10-31, 02:14:00,VALID,917.538,VALID,0,VALID,100,VALID,-0.0169808,VALID,18.939,VALID,19,VALID,0.0839844,
2005-10-31, 02:15:00,VALID,917.558,VALID,0,VALID,100,VALID,-0.0339617,VALID,18.9325,VALID,13,VALID,0.410429,
2005-10-31, 02:16:00,VALID,917.537,VALID,0.2,VALID,100,VALID,0,VALID,18.933,VALID,10,VALID,0.160633,
2005-10-31, 02:17:00,VALID,917.526,VALID,0,VALID,100,VALID,0,VALID,18.9358,VALID,10,VALID,0.0228924,
2005-10-31, 02:18:00,VALID,917.521,VALID,0,VALID,100,VALID,0,VALID,18.9459,VALID,10,VALID,0,
2005-10-31, 02:19:00,VALID,917.496,VALID,0,VALID,100,VALID,0,VALID,18.9455,VALID,10,VALID,0.14226,
2005-10-31, 02:20:00,VALID,917.5,VALID,0,VALID,100,VALID,-0.0339617,VALID,18.9487,VALID,10,VALID,0.233507,
2005-10-31, 02:21:00,VALID,917.504,VALID,0.2,VALID,100,VALID,-0.0169808,VALID,18.9584,VALID,10,VALID,0.111374,
2005-10-31, 02:22:00,VALID,917.494,VALID,0,VALID,100,VALID,-0.0679233,VALID,18.9651,VALID,10,VALID,0.125355,
2005-10-31, 02:23:00,VALID,917.485,VALID,0,VALID,100,VALID,-0.0509425,VALID,18.942,VALID,10,VALID,0.0159801,
2005-10-31, 02:24:00,VALID,917.485,VALID,0.2,VALID,100,VALID,-0.0339617,VALID,18.9618,VALID,10,VALID,0.176639,
2005-10-31, 02:25:00,VALID,917.465,VALID,0,VALID,100,VALID,-0.0169808,VALID,18.9651,VALID,10,VALID,0.472929,
2005-10-31, 02:26:00,VALID,917.47,VALID,0,VALID,100,VALID,-0.0339617,VALID,18.9778,VALID,10,VALID,0.630814,
2005-10-31, 02:27:00,VALID,917.457,VALID,0,VALID,100,VALID,-0.0169808,VALID,18.9713,VALID,10,VALID,0.590774,
2005-10-31, 02:28:00,VALID,917.457,VALID,0.2,VALID,100,VALID,-0.0169808,VALID,18.9748,VALID,10,VALID,0.544457,
2005-10-31, 02:29:00,VALID,917.429,VALID,0,VALID,100,VALID,-0.0509425,VALID,18.9616,VALID,13,VALID,0.533008,
2005-10-31, 02:30:00,VALID,917.422,VALID,0,VALID,100,VALID,-0.0339617,VALID,18.9581,VALID,43,VALID,0.719993,
2005-10-31, 02:31:00,VALID,917.405,VALID,0.2,VALID,100,VALID,0,VALID,18.9586,VALID,40,VALID,0.71147,
2005-10-31, 02:32:00,VALID,917.407,VALID,0.2,VALID,100,VALID,-0.0169808,VALID,18.9519,VALID,14,VALID,0.396802,
2005-10-31, 02:33:00,VALID,917.389,VALID,0.2,VALID,100,VALID,0,VALID,18.9166,VALID,322,VALID,0.897917,
2005-10-31, 02:34:00,VALID,917.386,VALID,0.2,VALID,100,VALID,-0.0169808,VALID,18.9,VALID,325,VALID,0.192649,
2005-10-31, 02:35:00,VALID,917.377,VALID,0.2,VALID,100,VALID,-0.0339617,VALID,18.8905,VALID,320,VALID,0.328311,
2005-10-31, 02:36:00,VALID,917.374,VALID,0.2,VALID,100,VALID,-0.0339617,VALID,18.8875,VALID,231,VALID,0.651708,
2005-10-31, 02:37:00,VALID,917.366,VALID,0,VALID,100,VALID,-0.0169808,VALID,18.9198,VALID,245,VALID,0.791602,
2005-10-31, 02:38:00,VALID,917.337,VALID,0,VALID,100,VALID,-0.0509425,VALID,18.8686,VALID,199,VALID,0.655729,
2005-10-31, 02:39:00,VALID,917.319,VALID,0.2,VALID,100,VALID,-0.0509425,VALID,18.855,VALID,270,VALID,0.664063,
2005-10-31, 02:40:00,VALID,917.298,VALID,0,VALID,100,VALID,-0.0509425,VALID,18.8617,VALID,348,VALID,0.449396,
2005-10-31, 02:41:00,VALID,917.299,VALID,0,VALID,100,VALID,-0.0509425,VALID,18.8458,VALID,282,VALID,0.525724,
2005-10-31, 02:42:00,VALID,917.303,VALID,0.2,VALID,100,VALID,-0.0849042,VALID,18.8234,VALID,269,VALID,0.677507,
2005-10-31, 02:43:00,VALID,917.305,VALID,0,VALID,100,VALID,-0.0339617,VALID,18.7969,VALID,209,VALID,0.974702,
2005-10-31, 02:44:00,VALID,917.297,VALID,0,VALID,100,VALID,-0.0169808,VALID,18.7807,VALID,230,VALID,0.65625,
2005-10-31, 02:45:00,VALID,917.312,VALID,0,VALID,100,VALID,-0.0169808,VALID,18.778,VALID,238,VALID,0.769176,
2005-10-31, 02:46:00,VALID,917.31,VALID,0,VALID,100,VALID,-0.0679233,VALID,18.7715,VALID,244,VALID,1.07976,
2005-10-31, 02:47:00,VALID,917.303,VALID,0,VALID,100,VALID,-0.0679233,VALID,18.778,VALID,279,VALID,0.551847,
2005-10-31, 02:48:00,VALID,917.299,VALID,0.2,VALID,100,VALID,0,VALID,18.7911,VALID,303,VALID,0.837126,
2005-10-31, 02:49:00,VALID,917.317,VALID,0,VALID,100,VALID,0,VALID,18.8006,VALID,252,VALID,0.569568,
2005-10-31, 02:50:00,VALID,917.316,VALID,0,VALID,100,VALID,-0.0169808,VALID,18.7941,VALID,14,VALID,1.14738,
2005-10-31, 02:51:00,VALID,917.32,VALID,0,VALID,100,VALID,-0.0169808,VALID,18.7839,VALID,356,VALID,0.630504,
2005-10-31, 02:52:00,VALID,917.298,VALID,0,VALID,100,VALID,-0.0169808,VALID,18.7713,VALID,7,VALID,0.360734,
2005-10-31, 02:53:00,VALID,917.298,VALID,0,VALID,100,VALID,-0.0169808,VALID,18.778,VALID,11,VALID,0.065625,
2005-10-31, 02:54:00,VALID,917.308,VALID,0,VALID,100,VALID,-0.0169808,VALID,18.7387,VALID,287,VALID,0.306784,
2005-10-31, 02:55:00,VALID,917.299,VALID,0,VALID,100,VALID,-0.0339617,VALID,18.736,VALID,282,VALID,0.015625,
2005-10-31, 02:56:00,VALID,917.295,VALID,0.2,VALID,100,VALID,-0.0339617,VALID,18.7265,VALID,241,VALID,0.18423,
2005-10-31, 02:57:00,VALID,917.285,VALID,0,VALID,100,VALID,0,VALID,18.72,VALID,236,VALID,0.491642,
2005-10-31, 02:58:00,VALID,917.263,VALID,0,VALID,100,VALID,0,VALID,18.7295,VALID,212,VALID,0.538889,
2005-10-31, 02:59:00,VALID,917.261,VALID,0,VALID,100,VALID,0,VALID,18.7397,VALID,235,VALID,0.737805,
2005-10-31, 03:00:00,VALID,917.259,VALID,0,VALID,100,VALID,0,VALID,18.7459,VALID,249,VALID,0.509766,
2005-10-31, 03:01:00,VALID,917.255,VALID,0,VALID,100,VALID,-0.0169808,VALID,18.7419,VALID,296,VALID,0.835938,
2005-10-31, 03:02:00,VALID,917.261,VALID,0,VALID,100,VALID,0,VALID,18.7489,VALID,262,VALID,0.812872,
2005-10-31, 03:03:00,VALID,917.263,VALID,0,VALID,100,VALID,-0.0169808,VALID,18.7556,VALID,264,VALID,0.677734,
2005-10-31, 03:04:00,VALID,917.263,VALID,0,VALID,100,VALID,0,VALID,18.7551,VALID,268,VALID,0.472202,
2005-10-31, 03:05:00,VALID,917.258,VALID,0,VALID,100,VALID,-0.0169808,VALID,18.7526,VALID,250,VALID,0.508398,
2005-10-31, 03:06:00,VALID,917.273,VALID,0.2,VALID,100,VALID,-0.0169808,VALID,18.7553,VALID,276,VALID,0.448331,
2005-10-31, 03:07:00,VALID,917.267,VALID,0,VALID,100,VALID,0,VALID,18.7586,VALID,276,VALID,0.0740327,
2005-10-31, 03:08:00,VALID,917.265,VALID,0,VALID,100,VALID,0,VALID,18.7623,VALID,276,VALID,0,
2005-10-31, 03:09:00,VALID,917.274,VALID,0,VALID,100,VALID,-0.0339617,VALID,18.7397,VALID,276,VALID,0,
2005-10-31, 03:10:00,VALID,917.274,VALID,0,VALID,100,VALID,-0.0339617,VALID,18.7069,VALID,268,VALID,0.238021,
2005-10-31, 03:11:00,VALID,917.271,VALID,0,VALID,100,VALID,0,VALID,18.7205,VALID,299,VALID,0.240945,
2005-10-31, 03:12:00,VALID,917.275,VALID,0,VALID,100,VALID,-0.0169808,VALID,18.7138,VALID,2,VALID,0.824219,
2005-10-31, 03:13:00,VALID,917.272,VALID,0,VALID,100,VALID,-0.0169808,VALID,18.7136,VALID,16,VALID,0.782986,
2005-10-31, 03:14:00,VALID,917.271,VALID,0,VALID,100,VALID,-0.0339617,VALID,18.727,VALID,13,VALID,0.730299,
2005-10-31, 03:15:00,VALID,917.284,VALID,0,VALID,100,VALID,-0.0339617,VALID,18.72,VALID,12,VALID,0.708031,
2005-10-31, 03:16:00,VALID,917.287,VALID,0,VALID,100,VALID,-0.0339617,VALID,18.717,VALID,12,VALID,0.431548,
2005-10-31, 03:17:00,VALID,917.297,VALID,0,VALID,100,VALID,0,VALID,18.7004,VALID,12,VALID,0.674306,
2005-10-31, 03:18:00,VALID,917.298,VALID,0,VALID,100,VALID,-0.0169808,VALID,18.6972,VALID,13,VALID,0.898056,
2005-10-31, 03:19:00,VALID,917.302,VALID,0,VALID,100,VALID,0,VALID,18.6974,VALID,14,VALID,0.804688,
2005-10-31, 03:20:00,VALID,917.288,VALID,0,VALID,100,VALID,0,VALID,18.694,VALID,1,VALID,0.826637,
2005-10-31, 03:21:00,VALID,917.29,VALID,0,VALID,100,VALID,0,VALID,18.7131,VALID,3,VALID,0.577592,
2005-10-31, 03:22:00,VALID,917.287,VALID,0.2,VALID,100,VALID,-0.0169808,VALID,18.72,VALID,17,VALID,0.960565,
2005-10-31, 03:23:00,VALID,917.275,VALID,0,VALID,100,VALID,-0.0169808,VALID,18.7235,VALID,14,VALID,0.931784,
2005-10-31, 03:24:00,VALID,917.287,VALID,0,VALID,100,VALID,0,VALID,18.7198,VALID,340,VALID,0.605646,
2005-10-31, 03:25:00,VALID,917.296,VALID,0,VALID,100,VALID,0,VALID,18.7196,VALID,342,VALID,0.333333,
2005-10-31, 03:26:00,VALID,917.295,VALID,0,VALID,100,VALID,-0.0169808,VALID,18.7362,VALID,342,VALID,0.285937,
2005-10-31, 03:27:00,VALID,917.294,VALID,0,VALID,100,VALID,-0.0169808,VALID,18.7293,VALID,342,VALID,0.361662,
2005-10-31, 03:28:00,VALID,917.306,VALID,0,VALID,100,VALID,-0.0169808,VALID,18.717,VALID,342,VALID,0.336509,
2005-10-31, 03:29:00,VALID,917.315,VALID,0,VALID,100,VALID,0,VALID,18.7074,VALID,342,VALID,0.43657,
2005-10-31, 03:30:00,VALID,917.324,VALID,0,VALID,100,VALID,0,VALID,18.7141,VALID,342,VALID,0.0783155,
2005-10-31, 03:31:00,VALID,917.333,VALID,0,VALID,100,VALID,-0.0339617,VALID,18.7041,VALID,342,VALID,0,
2005-10-31, 03:32:00,VALID,917.34,VALID,0,VALID,100,VALID,-0.0339617,VALID,18.697,VALID,342,VALID,0,
2005-10-31, 03:33:00,VALID,917.358,VALID,0,VALID,100,VALID,-0.0339617,VALID,18.7074,VALID,342,VALID,0,
2005-10-31, 03:34:00,VALID,917.361,VALID,0,VALID,100,VALID,0,VALID,18.7009,VALID,342,VALID,0.383185,
2005-10-31, 03:35:00,VALID,917.38,VALID,0,VALID,100,VALID,0,VALID,18.7041,VALID,346,VALID,0.377668,
2005-10-31, 03:36:00,VALID,917.396,VALID,0,VALID,100,VALID,0,VALID,18.7007,VALID,351,VALID,0.463605,
2005-10-31, 03:37:00,VALID,917.399,VALID,0,VALID,100,VALID,0,VALID,18.7041,VALID,7,VALID,0.405506,
2005-10-31, 03:38:00,VALID,917.437,VALID,0,VALID,100,VALID,-0.0169808,VALID,18.7037,VALID,59,VALID,0.111178,
2005-10-31, 03:39:00,VALID,917.466,VALID,0,VALID,100,VALID,0,VALID,18.7143,VALID,59,VALID,0.389236,
2005-10-31, 03:40:00,VALID,917.467,VALID,0,VALID,100,VALID,-0.0169808,VALID,18.7111,VALID,59,VALID,0.010016,
2005-10-31, 03:41:00,VALID,917.458,VALID,0,VALID,100,VALID,0,VALID,18.6847,VALID,75,VALID,0.637355,
2005-10-31, 03:42:00,VALID,917.462,VALID,0,VALID,100,VALID,-0.0169808,VALID,18.6875,VALID,232,VALID,0.812901,
2005-10-31, 03:43:00,VALID,917.464,VALID,0,VALID,100,VALID,0,VALID,18.7168,VALID,188,VALID,0.533612,